Wind_Speed
9 10 10 10 10 13 15 16 17 18 19 20 20 21 22 24 26 28 30 32 33 33 34 34 35 36 37 38 39 41 41 42 43 43 43 43 42 41 40 38 38 38 39 39
7 10 10 11 11 13 14 16 18 19 20 21 21 22 23 25 27 29 31 33 34 34 35 36 36 37 39 40 41 42 43 44 44 44 44 44 42 41 39 38 39 39 40 40
7 9 10 12 11 12 14 16 18 20 21 21 22 22 23 25 27 30 32 34 35 36 37 37 38 39 40 42 43 44 45 46 46 46 45 44 43 41 39 39 39 39 39 39
9 9 9 11 13 14 16 18 18 19 21 22 23 23 24 26 29 31 33 35 37 37 38 39 39 41 42 43 45 46 47 47 48 47 46 45 43 41 40 39 40 39 39 38
11 11 11 13 14 15 17 18 19 21 23 23 24 25 26 28 31 33 34 36 37 38 39 40 41 42 43 44 46 47 47 48 48 48 46 44 43 41 40 40 40 39 39 38
13 14 13 12 13 17 19 20 21 23 23 24 26 27 29 30 32 34 35 37 38 39 39 41 42 43 44 45 46 47 48 48 48 48 46 44 43 41 41 41 40 39 38 38
17 18 18 18 20 21 22 23 23 23 24 25 26 28 29 32 34 35 36 37 38 39 41 42 43 44 45 46 47 47 48 48 48 48 47 45 43 41 41 40 39 39 38 37
21 23 23 23 24 24 24 24 24 24 24 25 26 28 30 32 34 35 37 38 39 40 42 43 44 45 45 46 47 47 47 48 48 48 47 45 43 41 41 40 39 38 36 34
23 23 24 24 25 26 26 26 25 25 24 25 26 28 30 33 36 37 38 39 40 42 43 44 45 45 46 46 46 47 47 47 47 48 47 45 43 41 40 39 38 36 34 33
26 24 24 24 25 26 26 27 26 26 25 26 27 28 31 34 37 39 40 41 42 43 44 45 45 45 45 46 46 47 47 46 47 47 46 44 42 41 39 38 37 34 33 31
27 25 24 24 25 26 27 28 28 28 28 28 29 30 32 35 38 41 42 43 43 43 44 45 46 46 46 46 46 46 46 46 46 46 45 44 42 40 38 37 36 33 31 30
27 26 26 26 27 28 30 30 31 32 33 33 34 34 35 37 40 42 44 44 45 45 46 46 46 46 46 46 46 46 45 45 45 45 44 43 41 39 37 36 35 32 30 28
29 28 28 28 30 31 32 33 34 34 35 37 38 39 40 41 41 43 45 46 46 47 47 48 47 47 47 47 46 46 45 44 44 44 43 42 40 37 35 34 33 31 29 27
30 30 30 31 32 33 34 35 36 37 38 39 40 41 42 42 43 45 47 48 49 50 49 49 49 49 48 47 47 46 44 43 43 42 42 41 39 37 34 32 31 29 28 25
30 31 33 34 35 36 37 38 39 40 41 41 42 43 43 44 45 46 48 49 51 51 51 51 51 51 50 48 46 45 43 42 42 41 40 39 37 35 33 31 30 28 26 23
33 34 35 36 37 37 38 39 41 42 43 44 45 46 47 48 48 48 49 51 51 52 52 53 53 52 50 48 45 44 42 41 40 39 38 37 36 34 32 30 28 27 25 23
34 35 36 37 38 40 41 43 44 45 46 46 47 48 50 51 51 52 53 54 54 54 54 54 53 52 50 47 45 42 41 39 38 37 36 35 34 32 31 28 27 26 24 22
36 37 38 39 41 43 45 47 49 49 49 50 51 52 53 54 55 56 56 57 57 56 55 54 52 51 49 46 43 41 39 38 36 35 34 33 32 30 29 27 26 25 24 22
40 41 43 44 46 48 49 50 51 52 53 54 56 56 57 58 58 59 59 59 57 55 54 52 51 49 47 44 40 38 36 35 34 33 32 31 30 29 27 25 25 25 24 23
45 46 48 49 50 52 52 53 54 55 58 59 59 59 60 61 62 61 59 57 55 53 52 50 48 46 44 41 38 36 34 34 32 31 31 30 28 27 26 24 23 24 24 23
51 51 52 52 54 55 57 57 59 60 61 63 63 64 64 63 62 60 57 53 51 51 49 46 45 43 41 38 36 34 33 32 30 29 28 28 26 25 24 23 22 22 22 22
53 54 54 55 56 58 59 61 62 63 64 64 64 64 62 60 58 55 52 49 48 46 44 43 42 40 37 35 33 32 30 29 27 26 26 26 24 23 23 22 20 20 20 20
56 56 57 59 60 61 63 64 65 65 64 62 61 59 57 55 52 49 47 45 43 42 40 39 37 36 34 32 30 29 27 26 25 24 24 24 22 21 21 20 18 18 18 19
59 60 62 63 64 64 64 64 63 63 61 60 58 56 54 51 48 45 42 40 38 37 37 36 34 33 31 29 28 27 25 24 23 22 22 21 20 19 19 17 16 16 16 17
63 63 64 64 64 63 63 62 61 59 58 56 55 53 51 48 45 41 38 36 35 34 33 33 31 28 27 26 25 24 23 22 21 21 20 19 18 18 17 15 14 14 14 14
65 65 64 64 64 63 63 62 60 59 57 55 53 49 46 43 41 38 36 34 32 31 30 29 28 26 25 24 23 21 20 20 20 19 19 18 17 16 15 13 12 11 11 11
64 64 65 65 65 64 63 62 60 58 56 53 50 45 42 39 37 35 33 31 30 28 28 26 25 24 22 22 21 20 19 19 18 18 17 16 15 14 12 11 10 9 8 8
Wind_Direction
293 288 293 296 300 304 313 323 328 333 338 337 334 331 330 329 329 331 333 333 333 334 334 335 335 336 336 336 336 335 334 332 331 329 326 322 319 316 312 309 305 302 299 295
294 289 293 295 295 300 310 318 325 331 333 328 326 326 326 327 328 329 330 332 333 334 335 336 336 337 337 337 337 336 335 334 333 331 328 324 321 318 314 311 309 306 303 299
318 306 299 289 293 296 304 312 322 325 323 321 320 322 323 322 323 325 328 330 333 335 335 336 336 335 335 336 336 336 335 334 334 332 330 326 323 320 317 314 312 310 307 304
324 314 305 298 300 300 302 308 315 316 315 316 316 318 318 319 322 325 327 330 332 333 333 334 334 334 334 334 334 335 334 334 334 333 331 328 325 322 319 317 316 314 311 307
322 318 311 307 308 305 304 308 313 312 312 313 314 317 319 320 322 324 326 328 330 330 331 332 332 332 333 333 334 334 334 334 334 334 332 329 327 324 322 320 319 317 314 310
320 322 322 324 315 310 310 313 311 310 312 312 313 316 318 319 320 322 325 326 328 328 329 330 331 331 332 332 333 333 334 334 334 334 333 331 328 326 325 323 321 319 316 312
321 323 323 323 321 319 320 318 315 314 311 310 310 312 315 316 318 320 322 324 326 327 327 328 329 330 330 331 332 333 334 335 335 335 334 333 330 328 327 326 324 322 319 316
311 312 314 315 316 317 317 317 315 312 310 309 309 311 312 314 316 319 321 323 325 326 326 327 328 328 329 330 332 333 334 335 335 335 335 334 332 330 329 329 327 325 323 321
298 303 306 308 311 313 313 312 311 310 310 309 309 310 312 314 316 318 320 322 324 325 326 326 327 327 328 329 331 333 334 335 336 336 336 335 333 332 331 331 331 329 327 326
294 298 301 303 305 305 306 307 308 308 308 307 308 310 311 313 315 317 319 321 323 324 325 326 326 326 327 329 331 333 334 335 336 337 336 335 334 334 334 334 334 332 331 330
289 294 296 298 299 300 302 304 306 306 306 307 308 310 311 313 315 316 318 320 321 323 324 325 326 326 327 328 330 332 333 335 336 337 337 336 335 334 335 336 336 335 334 334
287 290 293 295 296 297 300 303 305 306 307 308 309 310 312 313 315 316 317 319 320 322 323 324 325 326 326 327 328 331 333 334 335 336 337 337 335 335 336 337 338 338 336 336
287 290 292 292 292 294 297 300 302 303 304 306 308 310 311 313 314 315 315 317 319 321 322 324 325 325 325 326 327 329 331 332 334 336 337 337 336 336 337 338 340 340 338 338
283 286 287 287 288 290 292 295 296 298 300 303 305 307 309 311 313 313 314 314 316 318 320 322 324 324 324 324 325 327 329 330 332 335 336 337 337 337 337 339 342 341 340 339
279 281 284 286 287 290 291 293 296 298 300 303 305 306 308 309 311 311 311 312 312 315 317 319 321 322 322 322 323 324 326 328 331 333 335 336 337 337 338 340 343 344 344 341
281 281 283 286 288 290 292 294 297 299 301 304 305 306 307 308 309 310 310 310 311 313 315 316 318 319 319 319 320 321 323 325 329 331 334 335 336 337 338 340 343 344 345 343
286 285 286 287 288 290 292 294 296 297 300 302 303 304 305 306 308 309 310 310 311 311 312 313 314 315 316 317 318 319 320 323 326 330 332 334 335 336 338 340 342 344 344 343
284 284 284 285 286 287 288 290 293 294 297 300 301 302 303 304 306 307 308 309 310 310 310 310 311 312 314 315 316 316 318 320 323 327 330 332 333 335 337 340 343 345 345 344
282 282 282 283 283 284 287 289 291 292 293 296 298 298 299 301 302 304 306 307 308 308 307 308 308 309 311 312 313 314 316 318 321 324 327 329 331 334 336 339 344 348 348 347
281 282 283 284 284 285 287 289 289 289 291 293 293 294 296 298 300 302 303 304 304 304 304 305 305 307 309 310 311 313 314 316 318 321 324 327 328 331 334 337 341 347 350 351
285 286 286 286 286 287 287 287 287 288 288 290 291 292 294 297 299 300 301 301 301 300 301 302 303 304 305 306 308 310 310 312 316 319 322 324 326 329 332 335 338 342 347 351
288 288 288 287 285 285 284 284 285 285 287 288 290 292 294 295 297 298 298 298 297 297 298 298 298 300 301 303 306 308 309 311 314 316 319 322 323 326 330 334 338 342 348 353
287 285 284 283 282 282 282 283 284 286 288 289 291 292 293 294 295 296 296 295 294 294 293 294 295 296 297 301 304 306 307 309 312 313 316 320 321 324 328 332 337 342 347 353
283 282 281 282 282 283 284 285 286 288 289 290 291 292 292 293 293 293 293 292 290 289 289 289 291 292 295 299 301 302 304 306 309 311 314 317 319 321 325 330 335 340 346 352
282 282 283 284 284 285 286 286 287 288 289 290 291 291 292 292 291 290 288 286 284 285 286 287 287 289 292 296 297 299 300 301 304 308 312 316 317 318 320 326 331 337 345 353
287 287 288 288 288 288 288 288 289 289 289 290 290 290 289 288 286 285 283 281 280 279 282 282 283 286 288 290 292 293 294 297 299 302 306 312 314 314 315 319 327 336 345 354
286 287 287 287 288 288 289 289 289 290 290 289 288 287 284 282 281 279 277 276 275 275 277 278 279 282 283 286 288 289 291 293 295 298 301 307 309 307 306 310 318 329 341 354
Height
5860 5859 5858 5857 5855 5854 5852 5850 5848 5845 5843 5841 5838 5835 5832 5829 5825 5821 5816 5812 5806 5801 5794 5788 5781 5774 5767 5760 5753 5745 5737 5730 5722 5713 5705 5696 5688 5681 5674 5667 5662 5656 5651 5646
5858 5856 5855 5854 5853 5852 5850 5847 5845 5843 5841 5838 5836 5833 5829 5825 5821 5817 5813 5808 5802 5795 5789 5782 5776 5769 5761 5754 5746 5738 5730 5722 5714 5705 5696 5687 5679 5671 5664 5657 5651 5645 5639 5634
5855 5854 5853 5852 5851 5849 5847 5845 5843 5841 5839 5836 5832 5829 5826 5822 5818 5814 5809 5803 5797 5790 5784 5777 5770 5763 5756 5748 5740 5732 5723 5715 5706 5697 5688 5679 5670 5662 5654 5647 5640 5633 5627 5621
5853 5852 5851 5851 5847 5845 5843 5842 5840 5838 5835 5832 5829 5826 5823 5818 5814 5809 5803 5797 5791 5785 5778 5771 5764 5757 5749 5741 5733 5725 5716 5707 5698 5689 5680 5670 5661 5653 5645 5637 5630 5623 5616 5609
5850 5848 5847 5846 5844 5842 5840 5838 5836 5833 5830 5827 5823 5820 5817 5813 5808 5803 5798 5792 5786 5779 5772 5765 5758 5751 5743 5735 5726 5718 5709 5700 5690 5681 5672 5662 5653 5644 5636 5628 5620 5612 5605 5598
5846 5844 5843 5844 5841 5838 5836 5833 5831 5828 5825 5821 5818 5815 5812 5807 5802 5797 5792 5786 5780 5773 5766 5759 5752 5744 5736 5728 5720 5711 5702 5692 5683 5673 5663 5654 5644 5635 5627 5619 5610 5602 5594 5586
5841 5839 5838 5837 5834 5833 5831 5829 5825 5822 5819 5816 5812 5809 5806 5801 5796 5791 5785 5780 5773 5767 5760 5753 5745 5737 5729 5721 5712 5703 5694 5684 5675 5665 5655 5646 5636 5627 5618 5610 5601 5593 5585 5577
5837 5835 5835 5832 5829 5827 5825 5822 5819 5816 5813 5810 5807 5803 5799 5794 5789 5784 5779 5773 5767 5760 5753 5746 5738 5731 5722 5714 5705 5696 5686 5677 5667 5657 5648 5638 5628 5619 5610 5601 5593 5584 5576 5568
5834 5833 5830 5826 5824 5821 5819 5816 5813 5811 5807 5804 5800 5797 5793 5788 5782 5777 5772 5766 5760 5753 5746 5739 5731 5723 5715 5706 5698 5688 5679 5669 5660 5650 5640 5630 5621 5612 5603 5594 5585 5577 5569 5561
5827 5826 5824 5821 5819 5816 5813 5810 5807 5804 5801 5798 5794 5791 5786 5781 5776 5770 5764 5758 5752 5745 5738 5731 5723 5715 5707 5699 5690 5681 5672 5662 5653 5643 5633 5623 5614 5605 5597 5588 5579 5570 5563 5555
5821 5820 5818 5816 5813 5809 5806 5803 5800 5797 5794 5791 5787 5784 5779 5774 5768 5762 5756 5750 5744 5738 5731 5724 5716 5708 5699 5691 5683 5674 5665 5655 5646 5637 5627 5618 5608 5600 5591 5582 5573 5565 5558 5550
5814 5813 5810 5808 5805 5801 5798 5795 5792 5789 5786 5782 5779 5776 5771 5766 5760 5754 5748 5742 5736 5729 5723 5715 5708 5700 5692 5683 5675 5667 5658 5649 5640 5631 5622 5613 5603 5594 5585 5577 5569 5561 5553 5546
5806 5804 5802 5799 5796 5793 5790 5787 5784 5781 5778 5774 5770 5766 5762 5757 5752 5745 5739 5733 5727 5721 5714 5707 5699 5691 5684 5676 5668 5659 5651 5643 5634 5626 5617 5608 5599 5591 5582 5574 5565 5557 5550 5543
5798 5795 5793 5790 5787 5785 5782 5779 5776 5773 5769 5765 5761 5757 5753 5748 5742 5736 5730 5724 5718 5711 5705 5697 5690 5683 5675 5668 5660 5652 5644 5636 5628 5620 5612 5603 5595 5586 5578 5571 5563 5555 5548 5541
5789 5786 5784 5781 5778 5775 5772 5769 5766 5762 5759 5755 5751 5747 5742 5738 5732 5727 5720 5714 5708 5701 5695 5688 5681 5674 5667 5659 5652 5645 5638 5630 5622 5614 5606 5598 5590 5583 5575 5567 5560 5552 5545 5539
5780 5777 5774 5772 5769 5766 5762 5759 5755 5752 5748 5744 5740 5736 5732 5727 5722 5716 5710 5704 5697 5691 5685 5678 5671 5665 5658 5651 5644 5637 5631 5623 5616 5609 5602 5594 5586 5579 5572 5564 5557 5550 5544 5538
5770 5767 5764 5761 5758 5755 5752 5748 5745 5741 5737 5734 5730 5725 5720 5715 5710 5705 5699 5693 5687 5681 5674 5668 5661 5655 5648 5642 5636 5630 5623 5617 5610 5603 5597 5590 5583 5576 5569 5562 5555 5548 5542 5536
5757 5754 5752 5749 5747 5744 5740 5736 5732 5728 5725 5721 5717 5713 5708 5703 5698 5693 5687 5681 5675 5670 5663 5657 5651 5645 5639 5633 5627 5622 5616 5610 5604 5598 5592 5585 5579 5573 5566 5560 5553 5546 5540 5535
5744 5741 5739 5736 5733 5730 5727 5723 5720 5716 5712 5708 5704 5699 5694 5690 5685 5680 5675 5669 5663 5657 5652 5646 5641 5635 5629 5624 5619 5614 5609 5604 5598 5593 5587 5581 5575 5569 5563 5557 5551 5545 5539 5533
5731 5729 5727 5724 5721 5717 5713 5710 5706 5702 5697 5693 5689 5684 5680 5676 5671 5666 5661 5656 5651 5645 5640 5635 5629 5624 5620 5615 5610 5606 5602 5597 5592 5587 5582 5577 5571 5566 5560 5555 5549 5543 5537 5532
5718 5715 5713 5710 5707 5703 5698 5694 5690 5686 5682 5677 5672 5668 5665 5661 5656 5652 5647 5643 5639 5632 5628 5623 5619 5614 5610 5606 5602 5598 5594 5590 5586 5582 5577 5572 5567 5562 5557 5552 5547 5542 5536 5531
5702 5700 5697 5693 5689 5685 5681 5676 5672 5668 5664 5661 5657 5652 5649 5645 5641 5637 5633 5629 5625 5620 5616 5612 5608 5604 5601 5598 5594 5591 5587 5583 5580 5576 5572 5568 5563 5559 5555 5550 5545 5541 5535 5530
5684 5681 5677 5673 5669 5665 5661 5657 5653 5649 5647 5643 5640 5636 5632 5629 5625 5622 5619 5615 5610 5607 5603 5600 5597 5594 5592 5589 5586 5583 5580 5577 5573 5570 5567 5563 5559 5555 5552 5548 5544 5539 5535 5530
5663 5659 5656 5652 5648 5645 5641 5638 5634 5631 5628 5625 5622 5619 5615 5613 5610 5606 5603 5600 5597 5594 5591 5589 5587 5584 5582 5581 5578 5576 5573 5570 5568 5565 5562 5559 5555 5552 5549 5546 5542 5538 5534 5530
5642 5639 5636 5632 5629 5625 5622 5619 5616 5613 5610 5607 5605 5602 5599 5596 5594 5592 5589 5587 5584 5582 5580 5578 5577 5575 5574 5572 5570 5568 5566 5564 5562 5560 5557 5555 5552 5549 5546 5544 5541 5538 5534 5531
5620 5617 5614 5611 5607 5604 5601 5598 5596 5594 5591 5589 5587 5585 5582 5580 5578 5577 5575 5574 5572 5571 5570 5568 5567 5566 5565 5564 5562 5561 5559 5558 5556 5555 5553 5550 5548 5546 5543 5541 5539 5537 5534 5531
5601 5597 5594 5590 5587 5583 5581 5578 5576 5574 5572 5570 5569 5568 5566 5565 5563 5563 5562 5561 5561 5560 5560 5559 5559 5558 5557 5556 5555 5554 5553 5552 5551 5549 5548 5546 5544 5542 5541 5539 5537 5536 5534 5531